[[{"header":{"parameterUnit":"m.s-1","parameterCategory":1,"la1":30.2991,"la2":30.254,"lo1":-89.0895,"lo2":-89.0444,"dy":0.0017,"dx":0.0017,"nx":28,"ny":28,"refTime":"2024-04-07T21:00:00:Z","depth":0,"parameterNumber":2,"parameterNumberName":"U-component_of_WINDS"},"data":[0,0,0,0,0,0,0,0,0,0,0,0,0,0,0,0,0,0,0,0,0,0,0,0,0,0,0,0,0,0,0,0,0,0,0,0,0,0,0,0,0,0,0,0,0,0,0,0,0,0,0,0,0,0,0,0,0,0,-2.5017,-2.5019,0,-2.5159,-2.516,-2.5162,-2.5213,-2.5212,-2.5212,-2.5211,-2.5356,-2.536,-2.5364,0,0,0,0,0,0,0,0,0,0,0,0,0,-2.4791,-2.4795,-2.5017,-2.5019,-2.5021,-2.5159,-2.516,-2.5162,-2.5213,-2.5212,-2.5212,-2.5211,-2.5355,-2.536,-2.5365,0,0,0,0,0,0,0,0,0,0,0,0,0,-2.4906,-2.4796,-2.5017,-2.5063,-2.5068,-2.5158,-2.5161,-2.5163,-2.5213,-2.5212,-2.5212,-2.5211,-2.5353,-2.5359,-2.5365,-2.542,0,0,-2.5385,-2.5388,0,0,0,0,0,0,0,0,-2.49,-2.4915,-2.5054,-2.506,-2.5066,-2.5167,-2.5134,-2.5249,-2.5213,-2.5158,-2.5211,-2.521,-2.5294,-2.5305,-2.5333,-2.5427,-2.5433,-2.5386,-2.539,-2.5393,-2.5394,0,0,0,0,0,0,0,-2.4892,-2.4909,-2.5073,-2.5056,-2.5063,-2.5076,-2.5092,-2.5156,-2.5228,-2.5163,-2.5167,-2.5183,-2.5297,-2.5327,-2.5337,-2.5436,-2.5386,-2.5391,-2.5395,-2.5398,-2.5582,-2.5583,0,0,0,0,0,0,-2.4876,-2.4902,-2.5069,-2.5077,-2.4979,-2.5081,-2.5098,-2.5136,-2.5228,-2.5241,-2.5183,-2.5185,-2.5316,-2.5329,-2.5342,-2.5413,-2.5392,-2.5399,-2.5402,-2.5581,-2.5583,-2.5584,0,0,0,0,0,0,-2.4871,-2.4891,-2.5063,-2.4991,-2.5014,-2.5085,-2.5127,-2.5139,-2.5169,-2.5243,-2.5257,-2.5201,-2.5316,-2.5333,-2.5401,-2.5418,-2.5401,-2.5407,-2.558,-2.5582,-2.5583,-2.5554,0,0,0,0,0,0,-2.4864,-2.4888,-2.491,-2.4991,-2.5017,-2.5119,-2.5128,-2.5142,-2.518,-2.5183,-2.5263,-2.5276,-2.5317,-2.5391,-2.5407,-2.5427,-2.5412,-2.5579,-2.5581,-2.5583,-2.5553,-2.5554,-2.5555,0,0,0,0,0,-2.4856,-2.4896,-2.4911,-2.493,-2.5046,-2.512,-2.5135,-2.5182,-2.5181,-2.5203,-2.5251,-2.5273,-2.5414,-2.5397,-2.5416,-2.5438,-2.5578,-2.558,-2.5583,-2.5553,-2.5554,-2.5555,0,0,0,0,0,0,-2.4814,-2.4907,-2.4925,-2.4992,-2.5047,-2.5128,-2.5157,-2.5181,-2.5238,-2.5238,-2.5294,-2.5312,-2.5375,-2.5414,-2.5393,-2.5497,-2.5497,-2.5504,-2.5469,-2.547,-2.5471,-2.5459,-2.5418,0,0,0,0,0,-2.4813,-2.4865,-2.4944,-2.4995,-2.5022,-2.5085,-2.5119,-2.515,-2.521,-2.5234,-2.5287,-2.5344,-2.5402,-2.5438,-2.5495,-2.556,-2.5578,-2.5584,-2.5585,-2.5585,-2.5589,-2.5627,-2.563,-2.5591,-2.5591,-2.5591,0,0,-2.481,-2.4868,-2.4897,-2.4988,-2.5035,-2.5088,-2.5104,-2.516,-2.52,-2.5242,-2.5309,-2.535,-2.5418,-2.5485,-2.5516,-2.5519,-2.5604,-2.5588,-2.5587,-2.5592,-2.5629,-2.5633,-2.5636,-2.5593,-2.5593,-2.5592,0,0,-2.4832,-2.4881,-2.493,-2.4977,-2.5048,-2.5089,-2.5101,-2.5179,-2.5207,-2.5276,-2.5309,-2.5358,-2.5455,-2.5502,-2.5539,-2.558,-2.5603,-2.5598,-2.56,-2.5636,-2.5639,-2.5642,-2.5656,-2.5661,-2.5602,-2.5602,-2.5602,0,-2.482,-2.4901,-2.4951,-2.5005,-2.5044,-2.5086,-2.5136,-2.5179,-2.5265,-2.5291,-2.5292,-2.5416,-2.5465,-2.5543,-2.5553,-2.5582,-2.5597,-2.5588,-2.5634,-2.5638,-2.5641,-2.5656,-2.5661,-2.5601,-2.5601,-2.5601,-2.5601,0,-2.4883,-2.4938,-2.4969,-2.5051,-2.5094,-2.5145,-2.5203,-2.5241,-2.5269,-2.531,-2.5379,-2.544,-2.5509,-2.5531,-2.5558,-2.5613,-2.5612,-2.5624,-2.5625,-2.5643,-2.5658,-2.5664,-2.5599,-2.5599,-2.56,-2.56,0,0,-2.4881,-2.4991,-2.5001,-2.5039,-2.5121,-2.5165,-2.5219,-2.5288,-2.5319,-2.5377,-2.5423,-2.5505,-2.5517,-2.5558,-2.5592,-2.5623,-2.5652,-2.5631,-2.5634,-2.5632,-2.5716,-2.5706,-2.5712,-2.5668,-2.5669,-2.567,-2.571,0,-2.4913,-2.501,-2.5058,-2.5134,-2.5187,-2.5228,-2.5275,-2.533,-2.5371,-2.5421,-2.5467,-2.5524,-2.5534,-2.556,-2.5593,-2.5642,-2.567,-2.564,-2.5711,-2.5713,-2.5692,-2.5719,-2.5709,-2.5743,-2.5716,-2.5717,-2.5718,0,-2.4964,-2.5022,-2.5104,-2.518,-2.5204,-2.5245,-2.5312,-2.536,-2.5424,-2.5452,-2.5498,-2.5532,-2.559,-2.5588,-2.5669,-2.5648,-2.5681,-2.5709,-2.5712,-2.5719,-2.5716,-2.5727,-2.5756,-2.576,-2.5727,-2.5727,-2.5726,0,-2.4953,-2.5053,-2.5114,-2.5146,-2.5237,-2.5264,-2.5304,-2.5367,-2.5406,-2.5465,-2.549,-2.5555,-2.559,-2.564,-2.569,-2.5684,-2.5766,-2.5769,-2.579,-2.5789,-2.5804,-2.5803,-2.5838,-2.5827,-2.5827,-2.5827,-2.5827,0,-2.4984,-2.5032,-2.5111,-2.5149,-2.5204,-2.5259,-2.5312,-2.5355,-2.5411,-2.5458,-2.5498,-2.5541,-2.5605,-2.5657,-2.5696,-2.5757,-2.5773,-2.5797,-2.5806,-2.5793,-2.5789,-2.5814,-2.5812,-2.5828,-2.5828,-2.5827,-2.5827,0,-2.4981,-2.5036,-2.5106,-2.5187,-2.5208,-2.5246,-2.5315,-2.5353,-2.5397,-2.5456,-2.5473,-2.554,-2.5603,-2.5658,-2.5741,-2.5768,-2.583,-2.5843,-2.5808,-2.5813,-2.5832,-2.5829,-2.5883,-2.5893,-2.5875,-2.5875,-2.5875,0,-2.4997,-2.5035,-2.512,-2.5154,-2.5193,-2.5248,-2.5288,-2.5343,-2.5383,-2.5459,-2.5488,-2.5554,-2.561,-2.5708,-2.5765,-2.5829,-2.5843,-2.5857,-2.5852,-2.5837,-2.5842,-2.5839,-2.5843,-2.5857,-2.5856,-2.5856,-2.5856,0,-2.5018,-2.5044,-2.5099,-2.5164,-2.5211,-2.5265,-2.532,-2.5346,-2.5412,-2.5454,-2.5519,-2.5562,-2.5647,-2.5712,-2.5782,-2.5823,-2.5851,-2.5858,-2.5866,-2.5852,-2.583,-2.5841,-2.5807,-2.5856,-2.5856,-2.5856,-2.5856,-2.5856,-2.5025,-2.5061,-2.5126,-2.5187,-2.5235,-2.5285,-2.5326,-2.5374,-2.5429,-2.5502,-2.5532,-2.5598,-2.5662,-2.576,-2.5801,-2.5853,-2.5858,-2.587,-2.5873,-2.5875,-2.5872,-2.5822,-2.5866,-2.5866,-2.5867,-2.5867,-2.5867,0,-2.5048,-2.5092,-2.5148,-2.5224,-2.5272,-2.5294,-2.5357,-2.5395,-2.5453,-2.551,-2.5564,-2.5639,-2.5702,-2.5764,-2.5831,-2.5861,-2.5876,-2.5877,-2.5875,-2.5884,-2.5864,-2.585,-2.5864,-2.5864,-2.5864,-2.5864,-2.5864,-2.5864,-2.5065,-2.5127,-2.516,-2.5247,-2.5291,-2.5356,-2.539,-2.5437,-2.5483,-2.5565,-2.5617,-2.5658,-2.5718,-2.5789,-2.5848,-2.5865,-2.5887,-2.5885,-2.5905,-2.5886,-2.5885,-2.5884,-2.5871,-2.589,-2.589,-2.592,-2.592,-2.5921]},{"header":{"parameterUnit":"m.s-1","parameterCategory":1,"la1":30.2991,"la2":30.254,"lo1":-89.0895,"lo2":-89.0444,"dy":0.0017,"dx":0.0017,"nx":28,"ny":28,"refTime":"2024-04-07T21:00:00:Z","depth":0,"parameterNumber":3,"parameterNumberName":"V-component_of_WINDS"},"data":[0,0,0,0,0,0,0,0,0,0,0,0,0,0,0,0,0,0,0,0,0,0,0,0,0,0,0,0,0,0,0,0,0,0,0,0,0,0,0,0,0,0,0,0,0,0,0,0,0,0,0,0,0,0,0,0,0,0,2.7622,2.7623,0,2.7716,2.7717,2.7718,2.7732,2.7731,2.773,2.773,2.7826,2.783,2.7833,0,0,0,0,0,0,0,0,0,0,0,0,0,2.7458,2.7461,2.7622,2.7623,2.7624,2.7716,2.7717,2.7718,2.7732,2.7731,2.773,2.7729,2.7825,2.7829,2.7833,0,0,0,0,0,0,0,0,0,0,0,0,0,2.7538,2.7462,2.7622,2.7642,2.7645,2.7715,2.7717,2.7718,2.7732,2.7731,2.773,2.7729,2.7824,2.7829,2.7834,2.789,0,0,2.7849,2.7852,0,0,0,0,0,0,0,0,2.7534,2.7544,2.7638,2.7641,2.7644,2.7711,2.7695,2.7776,2.7733,2.7699,2.773,2.7728,2.7789,2.7797,2.7817,2.7895,2.7899,2.785,2.7853,2.7855,2.7856,0,0,0,0,0,0,0,2.7528,2.754,2.7659,2.764,2.7643,2.7648,2.7658,2.771,2.775,2.7702,2.7703,2.7714,2.7791,2.7812,2.782,2.7901,2.785,2.7854,2.7857,2.7859,2.8031,2.8032,0,0,0,0,0,0,2.7519,2.7536,2.7656,2.7662,2.7585,2.7652,2.7663,2.7691,2.775,2.7757,2.7715,2.7714,2.7804,2.7814,2.7823,2.7894,2.7855,2.786,2.7863,2.8029,2.8031,2.8033,0,0,0,0,0,0,2.7515,2.7529,2.7652,2.7599,2.7615,2.7656,2.7687,2.7693,2.7715,2.776,2.7767,2.773,2.7804,2.7816,2.7874,2.7897,2.7862,2.7867,2.8027,2.803,2.8032,2.8035,0,0,0,0,0,0,2.751,2.7528,2.7549,2.76,2.7618,2.7701,2.7689,2.7696,2.7724,2.7724,2.7775,2.7783,2.7804,2.7866,2.7879,2.7904,2.7871,2.8025,2.8028,2.8031,2.8033,2.8037,2.8041,0,0,0,0,0,2.7504,2.7547,2.755,2.7565,2.7645,2.7702,2.7713,2.7736,2.7726,2.7748,2.7776,2.7781,2.7893,2.7872,2.7886,2.7913,2.8024,2.8027,2.8031,2.8032,2.8037,2.8041,0,0,0,0,0,0,2.7498,2.7553,2.7558,2.7618,2.7655,2.7704,2.7733,2.774,2.7782,2.778,2.7807,2.7819,2.7875,2.79,2.7876,2.7972,2.7958,2.7964,2.7953,2.7958,2.7962,2.7955,2.7875,0,0,0,0,0,2.7504,2.7545,2.7591,2.7639,2.7658,2.7692,2.7718,2.7732,2.7772,2.7788,2.7821,2.786,2.7904,2.7933,2.7976,2.8037,2.8049,2.8063,2.8066,2.8069,2.8075,2.811,2.8117,2.8044,2.8044,2.8044,0,0,2.7516,2.7551,2.7575,2.7639,2.767,2.7712,2.7705,2.775,2.7783,2.7795,2.7852,2.7877,2.7923,2.7983,2.8011,2.8005,2.8098,2.8074,2.8076,2.808,2.8114,2.8121,2.8127,2.8046,2.8046,2.8045,0,0,2.7559,2.759,2.7634,2.7664,2.7711,2.7734,2.7744,2.7793,2.781,2.7867,2.7878,2.7917,2.7992,2.8024,2.8051,2.8107,2.8114,2.8121,2.8141,2.8175,2.8181,2.8186,2.8207,2.8214,2.8126,2.8126,2.8126,0,2.7569,2.7632,2.7655,2.77,2.7728,2.7742,2.7787,2.7816,2.7874,2.7894,2.7886,2.7982,2.8013,2.8081,2.8095,2.8116,2.8129,2.8115,2.8178,2.8183,2.8189,2.8209,2.8217,2.8126,2.8126,2.8126,2.8126,0,2.7642,2.7686,2.7716,2.7771,2.7803,2.7848,2.7878,2.7908,2.792,2.7944,2.8002,2.8041,2.8092,2.8109,2.8121,2.818,2.8175,2.8172,2.8159,2.8196,2.8215,2.8223,2.8127,2.8127,2.8127,2.8127,0,0,2.7684,2.7752,2.7763,2.7788,2.7841,2.7876,2.7922,2.7972,2.7997,2.8037,2.8077,2.814,2.8139,2.8168,2.8184,2.8214,2.8258,2.8208,2.821,2.8217,2.8325,2.8327,2.8335,2.8262,2.8264,2.8265,2.8322,0,2.7734,2.7815,2.7838,2.7907,2.7949,2.7962,2.8003,2.804,2.8063,2.8103,2.8129,2.8174,2.8168,2.8187,2.8217,2.8246,2.828,2.8242,2.83,2.8302,2.8288,2.8346,2.8348,2.8399,2.8329,2.8331,2.8332,0,2.7804,2.7845,2.7918,2.7965,2.7984,2.8019,2.8067,2.8105,2.8147,2.8163,2.8196,2.821,2.8259,2.8243,2.8312,2.8286,2.8311,2.8329,2.8331,2.8338,2.8319,2.8354,2.8416,2.8424,2.8344,2.8343,2.8342,0,2.7828,2.7901,2.7955,2.7976,2.8033,2.8058,2.8083,2.8125,2.8153,2.8196,2.8215,2.8262,2.8289,2.8325,2.8352,2.8337,2.8419,2.8405,2.8434,2.8433,2.845,2.8449,2.8517,2.8466,2.8465,2.8465,2.8465,0,2.7882,2.7926,2.7967,2.7999,2.805,2.8076,2.8125,2.8151,2.8188,2.8227,2.8242,2.8278,2.8311,2.8352,2.8373,2.8427,2.8438,2.8453,2.8458,2.8452,2.845,2.8469,2.8466,2.8467,2.8467,2.8467,2.8466,0,2.7918,2.7946,2.8005,2.8054,2.8068,2.8103,2.8146,2.8179,2.8203,2.8252,2.8265,2.8304,2.8353,2.8383,2.8445,2.8459,2.8519,2.8523,2.8505,2.8507,2.8535,2.8532,2.8618,2.8631,2.857,2.8571,2.8571,0,2.795,2.7985,2.8037,2.8064,2.8089,2.8132,2.8162,2.8189,2.8219,2.8271,2.8298,2.8348,2.8389,2.8467,2.8501,2.8549,2.8555,2.8582,2.8562,2.8555,2.8556,2.8554,2.8558,2.8585,2.8585,2.8586,2.8586,0,2.8006,2.8018,2.806,2.8106,2.8141,2.8179,2.8218,2.8239,2.8273,2.8306,2.8356,2.8388,2.8452,2.8502,2.8553,2.858,2.8589,2.8592,2.8601,2.8596,2.8584,2.8592,2.8514,2.859,2.859,2.8589,2.8589,2.8589,2.8042,2.8073,2.8115,2.8161,2.8193,2.8228,2.8262,2.829,2.8332,2.8386,2.84,2.8452,2.8495,2.8565,2.8593,2.8635,2.8631,2.8645,2.8648,2.8651,2.8652,2.8577,2.8645,2.8645,2.8644,2.8644,2.8644,0,2.8099,2.8126,2.8168,2.8221,2.8257,2.8262,2.8305,2.8335,2.8382,2.842,2.8461,2.8519,2.8568,2.8606,2.8656,2.8683,2.8688,2.8695,2.8693,2.87,2.8653,2.864,2.869,2.869,2.8689,2.8689,2.8689,2.8689,2.8132,2.8186,2.8204,2.8274,2.8302,2.8353,2.8377,2.841,2.8442,2.8506,2.8546,2.857,2.8609,2.8662,2.8707,2.8717,2.8736,2.8742,2.8752,2.8708,2.8703,2.8698,2.8686,2.8745,2.8745,2.8796,2.8797,2.8797]}]]